Location: Unspecified
(0.0000°N, 0.0000°E)
Time: 12:52:13
(UTC+00:00)

Vanguard 2 - Visible Passes

Search period start: 07 October 2022 00:00
Search period end: 17 October 2022 00:00
Orbit: 552 x 2934 km, 32.9° (Epoch: 07 October)

Date Brightness Start Highest point End Pass type
(mag) Time Alt. Az. Time Alt. Az. Time Alt. Az.
07 Oct 10.3 18:30:13 10° NW 18:48:04 67° NE 19:01:12 16° ESE visible
07 Oct 10.2 20:43:50 10° WNW 21:00:34 54° SW 21:02:38 51° SSW visible
08 Oct 10.2 18:47:30 10° NW 19:05:39 82° NE 19:18:26 18° ESE visible
08 Oct 10.5 21:02:22 10° WNW 21:17:55 42° SW 21:19:53 40° SSW visible
09 Oct 10.3 19:05:01 10° WNW 19:23:09 81° SW 19:35:43 18° SE visible
09 Oct 10.8 21:21:25 10° W 21:35:23 32° SW 21:37:10 31° SSW visible
10 Oct 10.4 19:22:48 10° WNW 19:40:36 66° SW 19:53:02 17° SE visible
10 Oct 11.1 21:41:05 10° W 21:53:02 24° SW 21:54:29 24° SSW visible
11 Oct 10.7 19:40:55 10° WNW 19:58:05 52° SW 20:10:19 15° SSE visible
11 Oct 11.3 22:01:29 10° WSW 22:10:54 18° SSW 22:11:46 18° SSW visible
12 Oct 9.5 04:46:21 10° S 04:49:10 16° SSE 04:51:45 10° ESE visible
12 Oct 10.5 17:45:15 10° NW 18:02:30 88° NE 18:19:21 10° SE visible
12 Oct 11.0 19:59:27 10° W 20:15:38 41° SW 20:27:33 14° SSE visible
12 Oct 11.5 22:22:47 10° SW 22:29:00 14° SSW 22:29:00 14° SSW visible
13 Oct 8.6 05:02:39 10° SSW 05:06:33 31° SSE 05:10:05 10° E visible
13 Oct 10.6 18:02:45 10° WNW 18:20:00 77° SW 18:36:41 10° SE visible
13 Oct 11.2 20:18:31 10° W 20:33:20 32° SSW 20:44:42 12° SSE visible
14 Oct 7.3 05:19:31 10° SW 05:23:50 64° SE 05:27:45 10° ENE visible
14 Oct 10.8 18:20:32 10° WNW 18:37:34 62° SW 18:53:48 10° SE visible
14 Oct 11.4 20:38:11 10° W 20:51:16 25° SSW 21:01:45 11° SSE visible
15 Oct 9.8 03:31:26 15° SSE 03:32:20 15° SSE 03:35:00 10° ESE visible
15 Oct 11.0 18:38:41 10° WNW 18:55:12 50° SW 19:10:48 10° SE visible
15 Oct 11.5 20:58:27 10° WSW 21:09:27 20° SSW 21:18:39 10° SSE visible
16 Oct 9.1 03:48:25 22° S 03:49:57 26° SSE 03:53:32 10° E visible
16 Oct 11.3 18:57:13 10° W 19:12:58 40° SSW 19:27:41 10° SSE visible
16 Oct 11.5 21:19:21 10° SW 21:27:54 16° SSW 21:35:18 10° S visible
